GFSNW_con_lsi_336.txt.gz
Lid_Strength_Index
4 4 5 5 6 6 9 13 16 12 11 15 16 17 17 14 16 15 16 15 16 16 16 17 16 16 15 12 12 15 13 14 19 16 13 12 14 15 14 20 19 16 16 17
4 4 5 5 6 7 12 14 16 12 12 18 18 17 18 16 16 16 16 17 15 15 17 18 16 16 13 12 13 15 14 18 23 18 16 15 16 15 14 17 17 18 19 18
4 4 5 5 6 7 10 15 19 16 14 15 16 17 18 18 16 15 15 16 15 16 19 17 20 16 15 14 14 11 12 16 20 21 17 16 17 15 15 18 21 18 17 16
4 4 5 5 5 7 10 12 15 16 20 17 17 16 17 18 19 16 15 16 15 16 21 20 21 16 16 15 13 14 15 21 19 17 16 16 16 16 16 17 17 22 16 16
3 4 4 5 5 6 11 15 17 16 16 15 17 16 18 17 17 17 17 17 15 15 18 17 19 18 17 16 16 16 15 20 18 24 17 17 18 17 16 16 16 16 15 16
3 3 3 4 4 6 11 11 12 12 15 16 17 17 16 16 16 16 15 15 15 15 15 15 14 14 14 14 17 18 19 20 23 26 19 20 26 18 16 17 17 18 18 15
2 2 3 3 4 6 9 10 11 13 17 15 16 15 15 15 15 17 16 15 16 15 13 13 14 15 15 16 17 14 20 20 21 26 24 30 17 14 14 15 14 14 14 13
1 2 3 3 4 4 8 9 11 12 16 15 15 15 15 15 15 16 16 15 14 13 14 17 21 21 22 23 17 18 17 19 25 27 28 20 17 15 16 17 17 13 13 12
2 2 2 3 3 4 8 10 8 12 14 15 14 14 14 17 18 18 17 15 13 13 15 19 23 23 24 25 25 17 16 18 23 27 27 29 17 14 13 14 19 13 12 12
2 2 2 3 3 4 7 11 8 12 13 13 13 15 15 13 15 18 19 18 18 15 18 21 22 22 22 24 26 29 27 25 25 24 24 21 14 14 14 21 18 13 13 12
4 3 2 2 2 3 7 11 8 11 13 14 13 13 14 14 14 17 16 17 18 18 20 19 20 21 22 23 20 21 23 26 26 25 26 26 14 15 18 16 13 13 14 13
6 6 4 1 2 3 7 13 8 9 12 14 12 13 13 13 13 14 15 16 16 14 17 18 18 23 24 24 25 16 23 20 20 19 19 14 15 18 16 17 16 14 15 14
5 5 5 3 1 2 5 11 10 11 13 14 13 15 13 13 13 11 15 15 12 14 14 15 18 22 19 25 23 21 19 19 20 19 17 16 16 16 15 15 16 16 16 17
4 5 5 5 3 2 5 10 9 9 12 16 17 13 16 14 12 12 12 13 14 15 14 17 20 20 17 19 18 19 17 17 19 18 15 16 16 16 17 16 16 18 18 19
3 4 5 4 4 1 5 7 7 8 10 17 17 15 15 13 12 13 12 12 13 16 17 18 20 16 18 18 19 20 16 16 18 19 17 18 17 17 17 19 20 20 21 22
3 3 4 4 4 4 8 11 10 8 10 14 18 16 17 16 13 13 13 12 12 15 17 19 17 16 17 23 23 16 17 17 17 18 18 19 18 18 20 21 21 21 22 23
3 3 3 4 4 6 8 10 9 7 9 15 18 19 17 18 18 16 15 15 17 17 19 18 17 17 18 22 24 18 17 18 19 19 19 19 19 22 22 22 22 23 24 24
2 3 3 3 3 5 8 6 6 8 10 11 18 20 18 19 19 21 18 18 18 20 19 20 20 19 21 23 22 20 20 20 20 20 21 22 22 23 24 24 25 27 27 26
1 2 3 6 8 9 9 5 8 9 10 16 16 20 21 19 19 19 19 16 21 22 22 21 21 23 24 21 22 23 24 24 23 25 28 30 30 29 28 29 29 30 28 28
0 3 7 10 8 3 4 8 10 11 14 15 19 18 21 18 19 22 20 19 21 26 23 21 25 23 23 24 24 23 23 24 28 31 31 33 33 32 32 32 32 31 30 30
4 6 8 6 3 8 10 14 13 15 17 18 19 18 20 17 20 23 18 23 24 27 25 25 27 25 21 22 23 21 22 25 28 29 29 31 31 32 32 32 33 33 33 33
4 5 5 7 9 11 15 18 19 17 20 22 19 20 20 22 17 21 23 25 25 27 25 26 29 21 24 24 24 24 26 28 30 32 32 33 32 33 33 33 33 33 32 32
4 7 9 10 13 14 16 19 23 25 23 23 22 22 21 22 19 23 22 26 27 26 27 27 22 24 26 27 29 31 32 32 32 32 33 33 33 34 34 33 34 32 32 32
7 9 15 14 17 17 21 21 19 20 19 18 19 20 20 22 23 22 26 29 27 30 31 27 24 26 25 27 29 30 31 33 33 33 33 34 35 34 35 35 34 36 34 32
13 14 21 24 26 26 28 27 22 19 17 18 19 18 19 23 26 27 28 31 31 26 25 25 26 29 27 28 29 31 31 33 34 34 34 34 35 36 34 35 36 37 35 36
19 22 23 26 23 24 23 21 21 20 18 16 17 22 25 28 26 29 29 28 28 25 27 28 29 31 31 31 31 31 32 33 34 34 34 34 35 35 34 38 37 35 38 37
20 23 23 23 21 23 24 22 23 20 18 22 22 27 27 27 29 29 27 26 26 28 29 28 30 30 31 32 33 33 34 34 35 35 35 35 36 39 40 36 35 39 37 36

GFSNW_con_lsi_339.txt.gz
Lid_Strength_Index
4 4 4 5 5 6 9 14 17 13 12 18 18 22 18 15 17 16 18 17 17 18 19 20 19 18 17 14 14 16 14 16 21 17 15 14 15 15 15 21 21 18 20 18
4 4 5 5 5 6 12 15 17 13 13 21 22 20 19 17 18 18 18 18 17 17 19 21 18 17 15 14 14 16 15 20 28 21 18 16 17 15 14 19 20 21 25 19
4 4 5 5 6 7 12 16 20 17 16 18 19 20 19 19 17 17 17 17 17 18 21 19 21 18 16 15 14 11 12 19 23 23 19 18 17 16 16 21 28 22 19 17
4 5 5 5 6 7 12 14 18 18 21 19 18 18 19 19 20 18 17 18 17 18 22 22 22 19 18 16 13 15 17 23 22 20 17 18 17 17 17 20 20 23 17 18
4 4 5 5 6 7 13 16 19 19 19 17 18 17 20 19 18 18 18 19 17 18 21 18 21 20 20 18 18 18 17 23 21 25 18 18 20 18 18 17 18 19 17 17
4 4 5 5 6 8 14 16 16 15 16 18 19 19 18 17 17 17 17 17 17 17 17 17 16 16 16 17 19 22 22 23 27 27 20 22 25 20 18 19 20 21 23 17
4 4 4 5 6 8 13 14 14 16 20 17 18 17 17 17 17 18 17 16 17 16 15 15 16 17 17 18 19 16 22 23 26 29 27 31 19 17 16 17 15 16 17 16
3 3 4 4 5 6 11 12 13 14 18 16 17 17 17 16 17 18 17 17 15 14 16 21 25 26 24 25 20 20 19 22 28 28 35 22 19 18 18 19 19 16 16 15
2 2 3 4 5 5 9 10 9 13 16 17 14 16 16 19 21 22 19 16 15 15 19 25 29 27 27 28 27 20 18 21 25 33 32 32 20 17 16 15 22 16 15 16
3 2 3 3 4 4 7 11 9 12 14 14 13 15 16 15 17 21 20 19 19 16 26 30 27 27 25 26 27 29 29 29 27 32 32 26 17 16 15 23 20 15 15 16
4 3 2 3 3 4 7 10 8 10 14 15 13 13 14 15 16 19 19 18 21 24 24 24 25 28 24 25 22 23 24 28 28 31 32 29 16 16 19 17 15 15 16 17
5 5 3 3 4 4 7 12 9 10 13 15 14 14 14 13 13 15 16 18 20 17 20 21 23 27 27 25 25 17 22 21 23 23 22 17 17 19 19 19 18 17 17 18
6 5 6 3 3 3 6 11 11 12 15 15 14 16 14 13 14 13 16 16 14 15 14 18 22 25 21 25 23 23 20 22 21 21 19 19 18 18 17 17 18 18 19 20
4 5 5 5 3 3 8 11 9 11 13 17 19 13 16 14 13 13 13 14 14 14 15 19 21 22 18 21 19 20 18 19 22 20 17 17 18 18 18 17 18 19 20 20
4 4 5 4 3 4 8 9 8 9 11 19 19 15 15 13 13 13 13 13 14 16 17 20 19 17 18 19 20 22 17 18 20 20 17 18 18 19 19 20 21 21 22 23
3 3 4 4 5 7 10 12 11 10 11 16 20 17 17 15 13 13 14 13 15 15 17 18 18 17 17 26 27 17 17 18 17 19 18 19 19 21 21 22 22 22 23 23
3 4 4 4 4 7 10 12 11 9 10 17 20 21 18 17 16 17 16 16 18 17 19 20 19 19 21 27 27 18 19 19 19 19 19 20 20 22 22 22 23 23 24 25
3 3 3 3 4 7 11 9 7 8 11 13 20 22 19 17 18 19 18 18 20 21 23 23 22 22 26 24 22 22 21 21 21 20 21 22 23 24 24 25 26 29 28 27
3 3 3 7 9 10 11 7 8 9 12 18 19 21 23 18 19 19 20 18 22 22 25 24 22 30 24 21 23 24 24 22 23 25 29 31 29 28 29 30 31 31 29 31
2 7 11 12 10 5 6 10 12 14 15 16 19 23 23 19 19 21 19 20 23 26 24 23 28 26 22 23 21 20 23 24 26 28 30 34 33 33 33 32 32 32 31 32
7 14 12 8 4 9 10 14 13 15 19 20 19 22 20 17 21 21 18 21 23 27 26 26 33 29 22 24 24 22 23 24 28 29 30 31 31 31 32 34 33 33 33 35
7 8 6 8 9 11 15 17 18 16 19 26 21 19 19 18 17 19 20 22 24 29 29 28 31 23 26 25 24 24 25 27 30 32 30 34 32 33 34 34 33 34 33 35
7 9 10 10 12 15 17 19 20 26 27 24 22 23 19 19 19 22 21 26 27 30 30 28 26 26 28 28 29 32 35 33 33 34 35 35 35 38 35 33 34 37 37 35
10 10 14 15 15 15 17 23 22 23 22 19 21 22 19 20 21 22 23 28 28 33 33 29 26 26 26 28 29 29 32 32 31 31 33 33 34 35 37 36 37 39 37 35
15 15 22 26 24 31 28 27 25 22 15 18 20 20 20 23 24 28 29 31 32 29 27 26 27 29 26 28 30 30 31 32 33 35 34 33 35 37 36 36 38 40 40 39
21 23 23 25 26 25 25 22 23 21 20 19 18 21 21 24 24 30 29 28 29 26 28 31 33 31 32 32 32 31 32 32 33 35 35 34 37 36 35 41 42 39 37 36
22 25 24 25 24 26 26 24 24 20 22 18 19 21 23 27 30 31 29 26 27 31 32 34 33 31 32 33 34 35 35 35 36 37 37 36 38 42 41 37 36 41 40 39

GFSNW_con_lsi_342.txt.gz
Lid_Strength_Index
3 4 4 4 5 6 9 14 18 13 12 16 21 23 18 16 17 16 17 17 18 20 20 23 20 19 19 16 16 17 16 18 22 19 17 16 15 15 16 23 23 20 21 19
3 3 4 4 6 7 12 16 17 13 13 20 21 21 18 17 18 17 18 18 18 18 20 22 20 19 18 16 16 17 16 22 28 22 19 17 17 16 15 21 22 22 26 21
3 3 4 5 5 6 12 16 20 17 15 18 20 22 20 19 17 17 17 18 18 19 22 21 22 19 18 16 16 12 14 21 23 23 20 18 18 16 16 22 28 24 21 20
3 4 4 5 6 7 12 16 18 17 22 20 19 18 18 19 20 18 17 19 18 19 22 24 23 21 19 17 14 17 18 23 24 23 19 19 17 17 17 21 23 23 18 24
3 3 4 5 6 7 13 17 19 19 21 17 18 17 20 19 19 19 19 19 18 19 21 18 21 22 22 20 19 20 19 24 22 25 20 19 20 18 18 18 20 20 19 19
3 3 4 5 6 8 15 15 15 15 17 18 18 19 19 18 18 18 17 17 18 19 18 19 19 18 18 19 20 23 21 23 27 29 22 23 25 21 18 21 22 22 25 20
2 3 4 5 7 7 13 14 14 17 20 18 18 17 17 18 17 19 18 17 17 17 16 17 18 18 18 20 21 18 23 24 28 30 28 30 19 19 18 18 17 19 19 19
1 3 4 6 7 7 12 13 14 15 19 18 18 18 17 17 18 19 18 18 16 16 17 22 26 26 23 25 22 21 20 23 30 28 35 23 20 19 20 20 20 17 18 16
1 2 4 5 6 7 10 11 10 14 17 18 16 16 16 20 21 22 20 17 15 16 20 25 28 27 26 29 27 21 20 23 24 34 31 30 21 19 17 17 23 17 16 16
1 2 3 4 5 6 8 11 10 13 15 16 15 17 17 17 19 22 20 19 19 17 26 28 26 26 26 26 28 29 29 30 29 33 33 26 18 17 16 24 21 16 16 16
1 2 3 3 4 5 7 11 10 11 15 16 14 14 16 17 17 19 19 18 20 23 24 24 25 28 26 27 24 25 26 28 30 33 33 27 17 18 20 18 16 16 17 17
1 1 2 3 4 4 5 12 9 10 14 16 15 15 14 14 13 16 15 17 19 17 20 26 25 29 30 27 27 20 23 23 24 23 22 19 18 20 20 20 18 17 17 18
1 2 2 2 3 3 6 10 10 13 16 16 15 16 15 13 14 12 16 16 15 18 17 19 22 26 23 26 26 26 22 24 21 21 20 19 19 20 18 18 18 18 18 20
3 3 4 4 3 4 8 11 9 11 14 18 19 14 16 14 13 13 13 14 14 14 16 19 25 23 18 22 20 21 20 19 21 21 19 19 19 19 18 18 18 19 20 21
3 3 4 5 3 4 8 9 9 10 11 20 19 16 15 13 13 13 13 13 14 16 18 21 22 18 18 20 20 23 19 19 19 20 17 19 18 18 17 19 20 20 21 23
3 3 3 3 2 8 11 13 12 11 12 17 20 18 17 14 13 14 15 14 15 16 17 19 19 17 17 22 25 19 17 17 17 18 19 20 20 21 20 21 21 21 22 23
3 3 2 2 5 7 11 12 12 10 12 18 21 21 18 17 16 17 16 16 18 17 19 19 18 18 19 24 26 18 17 19 20 19 20 22 21 22 21 21 22 23 24 25
3 3 3 4 5 8 12 10 8 9 13 15 21 23 19 17 18 19 18 19 19 21 21 20 19 20 23 24 22 22 21 22 21 21 23 22 22 23 24 24 25 28 27 27
3 4 4 8 10 11 11 7 9 10 13 19 20 22 23 18 20 19 18 17 20 21 21 20 20 26 22 19 21 23 23 22 23 27 30 30 27 26 27 28 30 30 28 29
3 7 10 14 11 5 7 10 13 15 16 16 20 20 22 19 20 21 20 20 22 22 21 21 23 23 21 21 20 19 21 24 27 29 32 34 33 29 30 30 31 29 30 32
10 14 13 9 6 10 12 15 16 18 20 20 20 22 21 19 21 22 19 21 22 23 23 22 27 27 23 21 22 21 22 24 27 28 29 28 26 27 30 33 32 33 34 35
10 9 7 10 11 15 17 20 23 22 22 25 23 21 21 20 17 20 21 22 22 23 25 24 26 24 27 28 27 24 25 27 32 33 29 32 29 30 31 33 34 33 34 37
9 11 12 13 14 17 23 23 27 29 29 25 23 22 21 20 18 21 22 23 24 25 26 25 24 26 29 32 30 32 32 31 31 34 35 34 35 37 35 34 37 38 39 37
14 19 21 20 20 21 25 28 27 27 26 22 22 26 20 20 21 21 23 27 26 26 27 26 25 26 27 29 31 29 33 31 30 31 34 33 34 35 37 37 38 40 39 36
20 19 24 27 25 28 29 30 29 27 17 22 22 22 21 25 22 23 25 28 25 24 26 25 26 29 27 29 31 30 31 32 33 36 35 35 35 37 36 37 39 40 40 41
20 21 26 27 21 25 24 26 26 22 20 18 17 18 19 21 22 27 24 23 25 26 29 30 31 30 29 30 32 32 32 32 35 35 36 34 35 35 34 42 43 41 40 38
23 27 25 27 26 23 26 26 26 20 17 20 20 19 21 24 24 27 27 25 29 32 33 32 35 33 31 31 32 35 35 36 37 38 37 36 38 42 40 37 36 41 42 41

GFSNW_con_lsi_345.txt.gz
Lid_Strength_Index
2 3 3 3 4 5 8 14 18 13 12 17 24 24 19 15 16 15 17 16 17 19 20 21 21 20 19 17 17 19 18 20 24 22 19 18 16 17 17 24 24 21 23 23
3 3 3 4 5 6 11 16 17 13 13 22 23 22 18 18 17 17 17 17 17 18 19 21 21 20 19 17 18 19 18 23 30 24 20 18 18 17 17 22 23 23 28 22
3 3 3 4 5 5 12 15 20 17 15 17 20 22 21 19 17 17 17 18 17 18 21 21 23 20 19 18 17 14 16 23 25 24 22 20 20 18 18 22 27 26 22 22
2 3 3 4 5 6 11 15 18 19 22 20 19 18 19 19 20 18 17 19 18 18 21 22 24 22 20 19 16 19 19 24 25 25 21 21 19 19 19 22 24 22 19 22
3 3 4 5 5 6 12 16 17 17 21 17 18 18 20 19 19 19 19 19 18 18 20 18 21 21 21 20 21 21 21 25 23 26 21 21 22 19 18 18 22 22 20 19
3 3 4 4 6 6 13 15 15 14 17 18 19 18 18 18 17 18 17 17 18 19 19 19 19 19 19 20 21 23 22 24 26 29 24 25 25 21 19 21 23 23 24 19
3 3 3 4 5 6 11 14 14 16 20 18 18 16 17 18 17 18 19 16 16 18 17 17 18 19 20 22 22 20 25 25 28 30 30 31 20 20 19 19 19 20 21 20
3 3 3 4 5 6 8 12 13 14 17 17 18 17 17 17 17 19 18 18 16 16 18 21 22 24 23 26 23 23 22 23 31 29 33 24 21 20 20 21 21 18 19 18
3 3 3 3 5 5 7 11 10 14 16 19 16 17 17 19 19 21 21 18 16 17 20 23 25 26 26 29 28 22 21 23 24 35 30 30 22 20 18 18 24 19 18 17
1 2 2 3 4 5 8 11 10 13 15 16 15 16 17 16 18 20 21 20 20 18 22 25 26 28 27 27 28 26 28 30 28 31 32 26 20 19 17 24 21 18 17 17
1 1 1 2 4 4 8 11 9 11 16 16 14 14 16 18 17 20 20 19 20 22 21 22 25 28 27 27 25 24 25 27 30 33 33 27 19 19 20 19 18 17 18 18
1 0 0 0 2 4 7 12 9 11 15 17 15 16 16 15 14 17 17 18 19 18 21 24 25 28 28 27 27 22 23 23 24 24 22 20 17 21 22 20 19 18 18 18
0 0 1 2 3 4 5 10 11 13 16 17 16 17 16 14 15 13 16 18 16 18 17 20 21 25 24 27 26 26 24 26 24 23 21 20 20 22 20 20 20 18 18 19
0 0 1 2 2 3 7 10 9 12 15 18 19 15 17 15 13 14 14 15 15 15 16 19 24 25 21 24 22 22 22 21 24 22 20 20 20 20 19 19 19 20 21 21
1 2 1 1 2 4 7 9 9 10 12 20 20 16 16 14 13 13 13 13 15 16 18 20 22 20 21 22 22 24 21 20 20 20 19 20 18 17 18 20 21 21 22 23
2 3 2 2 2 7 10 13 12 11 13 17 20 18 18 15 14 14 15 15 16 17 18 20 20 19 19 25 25 19 18 18 17 19 19 22 20 18 19 20 21 21 22 22
2 2 2 2 3 6 9 12 12 10 13 19 22 21 18 18 16 17 17 17 18 17 19 21 21 20 21 27 25 20 18 19 20 21 21 22 22 22 21 21 22 23 23 24
2 3 2 3 4 6 11 10 8 10 15 16 21 23 19 17 18 20 17 19 18 20 21 24 23 21 24 23 23 22 20 21 22 20 23 21 21 22 24 24 25 28 27 26
3 4 4 8 10 11 12 7 9 11 14 20 20 22 22 17 19 19 18 16 20 21 21 21 20 27 24 19 20 22 22 20 21 27 28 26 24 24 27 28 29 28 27 29
4 7 11 13 11 5 6 10 13 16 17 17 20 19 21 18 19 20 20 19 22 22 22 21 23 24 21 21 19 16 20 23 25 27 29 32 32 27 29 28 28 26 27 30
10 12 13 9 7 10 12 15 17 18 21 20 21 20 21 18 20 21 19 21 21 22 24 23 28 27 22 20 19 19 19 23 21 27 23 27 23 26 28 32 30 31 32 33
11 9 8 9 12 14 17 19 19 19 21 23 21 21 20 19 17 20 20 22 22 22 27 24 27 23 25 26 23 22 22 24 29 31 27 29 28 27 27 29 31 33 34 37
10 11 13 13 17 19 18 21 25 29 28 25 21 21 20 20 18 21 21 22 24 24 25 25 23 25 28 28 28 30 29 29 31 33 33 32 35 34 32 34 39 36 38 40
17 20 20 21 24 27 30 28 30 29 28 22 23 23 20 20 21 21 23 27 24 26 29 27 26 27 27 28 29 28 30 30 31 32 33 33 33 34 38 36 36 36 38 38
23 22 28 30 29 31 31 33 31 29 27 26 24 24 22 23 24 25 27 29 28 25 25 26 29 30 29 27 28 30 31 32 33 34 34 33 34 32 35 39 39 39 41 42
24 26 29 30 28 28 29 30 29 24 23 25 21 23 21 24 24 31 29 27 28 28 33 33 32 32 31 32 31 30 32 33 34 36 36 34 33 34 35 42 42 40 39 38
26 26 26 30 30 27 28 28 28 22 19 20 24 27 27 27 30 32 35 31 34 35 33 32 32 31 33 33 34 35 34 33 34 38 37 36 39 39 39 36 36 38 38 39